Weather Roundup
Issued by NWS

Home | Current Version | Previous Version | Text Only | Print | Product List | Glossary On
Versions: 1 2 3 4 5 6 7 8 9 10 11 12 13 14 15 16 17 18 19 20 21 22 23 24 25 26 27 28 29 30 31 32 33 34 35 36 37 38 39 40 41 42 43 44 45 46 47 48 49 50
000
NZUS93 KARX 172310
HRRWXR

CURRENT HOURLY OBSERVATIONS ACROSS
MUCH OF THE UPPER MISSISSIPPI VALLEY
NATIONAL WEATHER SERVICE LA CROSSE WI
600 PM CDT TUE OCT 17 2017


...SOUTHEAST MINNESOTA...


CITY           SKY/WX    TMP DP  RH WIND       PRES   REMARKS
ROCHESTER      CLEAR     65  46  50 S10       29.98S
ROCHESTER/MAYO FAIR      70  42  37 S8        29.97S
WINONA         CLEAR     70  45  40 S3        29.97S
AUSTIN         CLEAR     66  45  45 S5        29.97F
ALBERT LEA     CLEAR     72  45  37 S6        29.97S
DODGE CENTER   CLEAR     68  41  37 S8        29.97S
PRESTON        CLEAR     66  42  42 S8        29.99F
OWATONNA       CLEAR     70  45  40 S9        29.95S
FARIBAULT      CLEAR     70  41  35 CALM      29.95R
$$

...ELSEWHERE IN MINNESOTA...


CITY           SKY/WX    TMP DP  RH WIND       PRES   REMARKS
MINNEAPOLIS    PTCLDY    72  41  32 S5        29.92F
INTNL FALLS    CLEAR     65  37  35 VRB5      29.75F
DULUTH         CLEAR     62  41  46 SW7       29.88F
RED WING       CLEAR     70  45  40 CALM      29.93S
REDWOOD FALLS  CLEAR     73  37  27 SW5       29.89F
MANKATO        CLEAR     72  38  29 SW6       29.93S
WORTHINGTON    CLEAR     71  39  31 S5        29.95F
FAIRMONT       CLEAR     72  40  31 SW7       29.95S
$$

...SOUTHWEST WISCONSIN...


CITY           SKY/WX    TMP DP  RH WIND       PRES   REMARKS
LA CROSSE      CLEAR     67  48  50 SE5       29.98S
PRAIRIE DU CHI CLEAR     70  39  32 S5        30.01S
BOSCOBEL       CLEAR     71  42  35 S8        30.01S
LONE ROCK      CLEAR     67  46  47 SW9       30.02S
PLATTEVILLE    CLEAR     66  46  47 S8        30.06S
FORT MC COY    CLEAR     64  47  53 S3        30.01R
CAMP DOUGLAS   MOCLDY    66  46  48 SW5       30.00R
MAUSTON-NEW LI CLEAR     67  46  48 CALM      30.00S
VIROQUA        FAIR      66  47  50 S5        30.01S
WIS DELLS      CLEAR     64  44  47 SW7       30.02S
$$

...ELSEWHERE IN WISCONSIN...


CITY           SKY/WX    TMP DP  RH WIND       PRES   REMARKS
MILWAUKEE      PTCLDY    69  44  40 SW14G21   30.06S
MADISON        PTCLDY    68  44  42 S8G18     30.03F
GREEN BAY      CLOUDY    63  50  62 S5        30.01R
EAU CLAIRE     CLEAR     66  45  46 S7        29.95S
BLACK RVR FLS  FAIR      67  43  41 S3        29.98S
MEDFORD        CLEAR     60  45  56 S7        29.98S
WAUSAU         CLEAR     63  47  55 S9        29.97S
WIS RAPIDS     CLOUDY    63  49  60 S5        30.01R
MARSHFIELD     CLOUDY    61  43  51 S6        29.98S
RICE LAKE      CLEAR     65  41  40 S5        29.95S
$$

...NORTHEAST IOWA...


CITY           SKY/WX    TMP DP  RH WIND       PRES   REMARKS
WATERLOO       CLEAR     67  43  41 S10       30.01S
DUBUQUE        CLEAR     65  43  44 S12       30.06S
DECORAH        CLEAR     68  45  42 SW6       29.99F
MASON CITY     CLEAR     65  45  48 S6        30.00S
CHARLES CITY   CLEAR     70  43  37 SW5       30.00S
OELWEIN        CLEAR     68  43  40 S14       30.02F
$$

...ELSEWHERE IN IOWA...


CITY           SKY/WX    TMP DP  RH WIND       PRES   REMARKS
DES MOINES     CLEAR     69  44  40 S12       30.03R
IOWA CITY      CLEAR     69  44  40 S9        30.08F
FORT DODGE     CLEAR     69  46  43 SW9       29.99F
MARSHALLTOWN   CLEAR     68  46  45 S10       30.02S
CEDAR RAPIDS   CLEAR     67  43  41 S9        30.05F
$$

...NORTHERN ILLINOIS...


CITY           SKY/WX    TMP DP  RH WIND       PRES   REMARKS
CHICAGO-OHARE  PTCLDY    67  40  37 SW8       30.11S
CHICAGO-MIDWAY PTCLDY    67  41  38 SW12      30.12F
MOLINE         CLEAR     66  42  41 SW6       30.09S
ROCKFORD       PTCLDY    67  39  35 SW9       30.10F
PEORIA         CLEAR     64  41  42 S10       30.15R
$$

NOTE: "FAIR" INDICATES FEW OR NO CLOUDS BELOW 12,000 FEET WITH NO
SIGNIFICANT WEATHER AND/OR OBSTRUCTIONS TO VISIBILITY. WIND
SPEEDS ARE IN MILES-PER-HOUR.




USA.gov is the U.S. government's official web portal to all federal, state and local government web resources and services.